Voltar ao catálogo

STARLINK-6306

AtivoComunicaçõesVLEO
NORAD 57242·PAYLOAD·🇺🇸 United States

Lançado Jul 7, 2023 de Vandenberg Space Force Base

Loading…

Próximas Passagens (próximas 24 horas)

TLE

AtualizadoSource: CelesTrak SupGP

Época: Sep 14, 2026, 21:11 UTC

1 57242C 23094AA  26257.88312500  .00038565  00000+0  13964-2 0  2575
2 57242  43.0042  31.6337 0001792 276.1379  35.3491 15.27568717    17

Acompanhe STARLINK-6306 em tempo real com AllMySat

Download on the App Store